User: anonymous   Login
Location: Unspecified
(0.0000°N, 0.0000°E)
Time: 01:40:02
(UTC+00:00)
Language:

DSCS III A-2 - Orbit

View from above orbital plane
View from above orbital plane
View from above satellite
View from above satellite

Ground track
Ground track

The orbit data is extracted from the following two-line orbital elements,

1 20203U 89069B   17083.74889093 0.00000000  00000-0  00000-0 0    09
2 20203  12.9391  31.2438 0011357 282.7651  77.1200  0.99118522    07
Epoch (UTC): 24 March 2017 17:58:24
Eccentricity: 0.0011357
inclination: 12.9391°
perigee height: 36064 km
apogee height: 36161 km
right ascension of ascending node: 31.2438°
argument of perigee: 282.7651°
revolutions per day: 0.99118522
mean anomaly at epoch: 77.1200°
orbit number at epoch: 0

The dashed part of the orbit path shows where the satellite is in the earth's shadow,  

DLR